Location: Gudip?du
(17.0263°N, 80.8301°E)
Time: 12:20:05
(UTC+00:00)

ARGOS - Pass Details

Date: 03 August 2024
Orbit: 818 x 834 km, 98.4° (Epoch: 11 September)

Event Time Altitude Azimuth Distance (km) Brightness Sun altitude
Rises 22:46:20 0° 22° (NNE) 3,354 7.1 -21.0°
Reaches altitude 10° 22:48:48 10° 29° (NNE) 2,418 6.4 -20.5°
Maximum altitude 22:53:53 44° 101° (E) 1,118 4.2 -19.4°
Drops below altitude 10° 22:58:56 10° 172° (S) 2,405 5.4 -18.3°
Sets 23:01:22 0° 179° (S) 3,335 6.1 -17.8°
